Weather in Mari-Kupta

Russia / Mari El Republic     56°51′19″N   49°42′24″E
temp.,
°C
wind,
m/s
gust,
m/s
humid.,
%
clouds,
%
prec.,
mm/h
press.,
hPa
HPBL,
m
28 february, sun
sun2800:00−18n499878 0.0 1006154
03:00−20n499975 0.0 1007154
06:00−21n489977 0.0 1008166
09:00−19n479569 0.0 1009249
12:00−16n579271 0.0 1010349
15:00−14n589183 0.0 1012450
18:00−18n479681 0.0 1014123
21:00−20n349868 0.0 101660
1 march, mon
mon100:00−21nnw349837 0.0 101846
03:00−23nnw339836 0.0 101933
06:00−24nnw33979 0.0 102123
09:00−20nnw22945 0.0 1021113
12:00−15wnw238723 0.0 1020256
15:00−13w248722 0.0 1019315
18:00−14ssw349659 0.0 101790
21:00−15ssw499678 0.0 1015219
2 march, tue
tue200:00−13ssw61195100 0.0 1011298
03:00−10ssw71393100 0.4 1006416
06:00−8ssw71394100 0.8 1002485
09:00−5ssw61295100 1.4 999478
12:00−1ssw6997100 0.8 997471
15:000w48100100 2.1 996459
18:000wnw3798100 0.9 996353
21:00−2nnw51194100 1.9 997363
3 march, wed
wed300:00−5nnw4994100 0.0 997220
03:00−7nnw3695100 0.0 999109
06:00−8nw489799 0.0 1000151
09:00−7nw489590 0.1 1001264
12:00−4nw699392 0.1 1002546
15:00−3nw699396 0.3 1003765
18:00−6nnw51191100 0.4 1005534
21:00−10nw4119367 0.4 1007244
4 march, thu
thu400:00−11wnw4109624 0.0 1008198
03:00−13w479635 0.0 1009134
06:00−13wsw379681 0.1 1009141
09:00−10wsw499590 0.1 1007298
12:00−5sw61289100 0.0 1004549
15:00−3sw81493100 0.4 1001909
18:00−2sw81595100 0.6 998775
21:000wsw81594100 1.3 9951001